Погода в Берестье

Беларусь     51°49′51″N   23°43′26″E
темп.,
°C
ветер,
м/с
пор.,
м/с
влажн.,
%
обл.,
%
осадки,
мм/ч
давл.,
гПа
погр.,
м
19 сентября, вс
вс1900:00+7сз4793100 0.3 1009526
03:00+7сз4793100 0.7 1008568
06:00+7ссз5893100 0.3 1008664
09:00+6ссз5793100 1.3 10091027
12:00+6ссз5792100 1.1 1010961
15:00+6сз6892100 1.4 1010973
18:00+6сз71193100 0.5 1010770
21:00+6ссз61195100 1.0 1011687
20 сентября, пн
пн2000:00+6ссз5995100 0.1 1012661
03:00+6ссз5894100 0.6 1013649
06:00+5ссз5895100 0.3 1014892
09:00+5ссз5793100 0.6 10151039
12:00+5ссз5792100 0.3 1016954
15:00+6ссз5889100 0.4 1017930
18:00+5сз5890100 0.1 1018929
21:00+5ссз5894100 0.3 1019781
21 сентября, вт
вт2100:00+4ссз4797100 0.5 1020679
03:00+4сз5797100 0.6 1021702
06:00+5сз4897100 0.1 1021734
09:00+5сз5894100 0.2 1022849
12:00+8ссз687590 0.1 10231043
15:00+9сз5972100 0.1 10231354
18:00+11ссз58596 0.0 1022977
21:00+9сз41172100 0.1 1023426
22 сентября, ср
ср2200:00+8зсз3773100 0.0 1023209
03:00+7сз3578100 0.0 1022147
06:00+5сз379230 0.0 1022149
09:00+7ссз47775 0.0 1022289
12:00+11ссз56575 0.0 10221189
15:00+13ссз564911 0.0 10201755
18:00+12ссз475620 0.0 1020700
21:00+8сз237192 0.0 102032
23 сентября, чт
чт2300:00+8ссз227130 0.0 101989
03:00+8зюз227476 0.0 101747
06:00+6зюз2287100 0.0 101627
09:00+9юз4788100 0.0 1013265
12:00+10юз51096100 1.5 1010501
15:00+11зюз71390100 2.3 1007671
18:00+12зюз91592100 4.3 10051069
21:00+11зсз7148947 7.3 1005765